GFSNGP_850_temp_021.txt.gz
Temp
13 14 15 15 14 14 14 13 11 11 13 11 10 10 10 10 10 10 9 8 7 7 6 7 6 6 6 6 5 5 5 4 4 3 2 0 -0 1 -1 -1 -2 -2 -2 -3
12 13 12 12 12 12 13 15 14 13 12 11 11 10 9 10 9 7 7 6 6 6 6 6 6 6 6 5 4 4 3 3 3 2 1 0 -0 -2 -3 -2 -2 -3 -3 -3
8 9 7 7 11 14 14 14 14 12 12 10 9 9 9 7 7 6 6 6 6 6 6 6 6 6 5 4 3 3 3 2 2 1 1 -0 -1 -2 -3 -4 -3 -3 -3 -4
4 4 6 12 14 13 12 13 12 11 10 9 8 8 7 6 6 6 6 6 6 6 6 6 5 5 4 3 3 2 2 1 1 0 -1 -1 -1 -3 -3 -4 -4 -3 -4 -4
4 5 8 12 13 12 11 10 10 9 9 8 8 8 6 6 6 6 6 6 6 6 5 5 4 3 3 2 2 2 1 0 -0 -1 -2 -3 -3 -2 -3 -5 -4 -4 -4 -5
4 3 4 9 12 13 13 6 9 9 7 7 7 2 4 6 6 6 6 6 6 5 4 4 3 2 2 2 1 1 -0 -1 -2 -2 -3 -4 -4 -4 -4 -4 -4 -4 -5 -5
2 2 5 9 13 13 7 7 9 8 7 6 5 6 6 6 6 6 6 5 5 4 3 3 2 2 2 1 0 -0 -1 -1 -3 -4 -4 -4 -4 -4 -5 -5 -4 -5 -5 -6
5 6 4 12 12 8 8 9 8 7 6 6 6 6 6 6 6 5 5 4 4 3 3 2 2 2 1 0 -0 -1 -2 -3 -4 -4 -4 -4 -5 -5 -4 -5 -5 -5 -6 -7
6 5 10 13 13 11 11 9 7 7 6 6 5 6 5 5 5 5 4 3 3 2 2 2 1 0 -0 -1 -2 -2 -3 -4 -4 -5 -5 -5 -4 -5 -5 -5 -6 -6 -7 -8
8 10 12 11 10 9 8 8 7 6 6 6 5 5 5 5 4 3 3 2 2 1 1 1 -0 -1 -1 -2 -2 -3 -4 -4 -5 -5 -5 -5 -5 -5 -6 -6 -6 -7 -8 -9
7 10 12 9 9 7 6 6 6 5 5 5 5 5 4 4 3 2 2 1 1 0 -0 -1 -1 -1 -2 -3 -4 -4 -4 -5 -5 -5 -6 -6 -7 -7 -7 -7 -8 -8 -9 -9
5 10 10 7 6 6 6 5 5 5 5 5 5 4 3 3 2 1 1 0 -0 -0 -1 -1 -2 -2 -3 -4 -4 -5 -5 -5 -5 -6 -7 -7 -8 -8 -8 -8 -9 -9 -9 -10
10 9 9 7 6 5 5 5 5 5 5 4 4 3 3 2 1 0 -0 -1 -1 -2 -2 -3 -3 -4 -5 -5 -5 -5 -6 -6 -7 -8 -8 -8 -8 -9 -9 -9 -9 -9 -9 -10
9 8 6 6 5 5 5 5 5 4 4 3 3 2 1 0 -0 -1 -1 -2 -2 -2 -3 -4 -4 -5 -5 -5 -6 -6 -6 -7 -7 -8 -9 -9 -9 -9 -9 -9 -9 -9 -10 -10
7 6 6 5 5 5 5 5 4 4 3 2 1 1 -0 -1 -1 -1 -2 -2 -2 -3 -3 -4 -5 -6 -6 -5 -7 -7 -7 -7 -7 -8 -9 -9 -9 -9 -10 -10 -10 -10 -10 -10
6 5 5 5 5 5 4 4 3 2 2 1 0 -1 -1 -2 -2 -2 -2 -2 -3 -3 -3 -5 -6 -5 -6 -6 -7 -7 -7 -8 -8 -8 -9 -9 -9 -9 -10 -10 -10 -10 -10 -10
6 5 5 5 4 3 3 3 2 1 1 -0 -1 -2 -2 -2 -2 -2 -2 -2 -3 -3 -4 -6 -6 -5 -6 -6 -7 -7 -8 -8 -8 -9 -9 -9 -9 -9 -10 -10 -10 -10 -10 -10
5 5 4 3 3 3 2 2 1 1 -0 -1 -2 -2 -2 -2 -2 -2 -2 -3 -3 -4 -4 -5 -6 -6 -6 -6 -6 -7 -8 -9 -9 -10 -9 -9 -9 -9 -9 -10 -9 -10 -10 -10
3 3 3 2 2 2 1 1 0 -1 -1 -2 -2 -2 -2 -2 -3 -3 -4 -6 -6 -6 -4 -6 -6 -6 -6 -6 -7 -7 -7 -8 -10 -10 -10 -9 -9 -9 -9 -9 -9 -10 -10 -10
2 2 2 2 1 1 0 -0 -1 -1 -1 -2 -2 -2 -2 -2 -3 -6 -6 -6 -6 -6 -6 -6 -6 -6 -6 -6 -7 -7 -8 -8 -9 -9 -10 -9 -9 -9 -9 -9 -10 -10 -10 -10
2 2 2 1 1 0 -0 -1 -1 -1 -2 -2 -2 -2 -3 -3 -4 -5 -6 -6 -6 -6 -5 -6 -7 -6 -6 -7 -7 -8 -8 -8 -8 -9 -9 -9 -9 -9 -9 -9 -9 -10 -10 -10
1 1 0 0 -0 -0 -1 -1 -1 -2 -2 -2 -2 -3 -3 -3 -4 -5 -5 -6 -6 -6 -6 -6 -7 -7 -7 -7 -7 -8 -8 -8 -8 -9 -9 -9 -9 -9 -9 -9 -10 -10 -10 -11
1 0 -0 -0 -1 -1 -1 -1 -2 -2 -2 -2 -2 -3 -3 -4 -4 -5 -5 -6 -6 -7 -7 -7 -7 -7 -7 -7 -7 -7 -8 -8 -8 -9 -9 -9 -9 -9 -9 -9 -10 -10 -11 -11
-0 -0 -1 -1 -1 -2 -2 -2 -2 -2 -2 -2 -3 -3 -4 -4 -4 -5 -6 -6 -6 -7 -7 -7 -7 -7 -7 -7 -7 -7 -7 -7 -8 -8 -9 -9 -9 -9 -9 -9 -9 -10 -10 -10
-1 -1 -1 -2 -2 -2 -2 -2 -2 -2 -3 -3 -3 -3 -4 -5 -5 -6 -6 -6 -6 -6 -7 -7 -7 -7 -7 -7 -7 -7 -7 -7 -7 -8 -9 -9 -10 -10 -10 -10 -10 -10 -10 -10
-1 -1 -2 -2 -2 -2 -2 -2 -2 -2 -3 -3 -3 -4 -4 -5 -6 -6 -7 -7 -7 -7 -7 -7 -7 -7 -7 -7 -6 -7 -7 -7 -7 -8 -9 -9 -10 -10 -11 -11 -11 -11 -10 -10
-2 -2 -2 -2 -2 -2 -2 -3 -3 -3 -3 -4 -4 -5 -5 -6 -7 -7 -7 -7 -7 -7 -7 -7 -7 -7 -7 -7 -7 -7 -7 -7 -7 -8 -9 -9 -10 -10 -10 -10 -10 -11 -11 -11

GFSNGP_850_temp_024.txt.gz
Temp
13 12 14 14 13 13 12 11 9 10 10 10 8 8 9 9 9 8 8 8 7 7 6 6 6 6 6 5 5 5 4 3 3 2 2 1 -0 -1 -1 -1 -2 -3 -4 -4
12 10 10 12 11 11 11 13 13 10 10 9 9 9 9 9 8 7 6 7 6 6 6 6 6 5 5 4 4 3 3 2 2 1 1 0 -1 -1 -2 -2 -3 -5 -5 -4
7 7 7 7 10 13 13 12 12 10 9 8 7 7 7 7 6 6 6 6 6 6 6 5 5 4 4 3 3 2 2 1 1 1 0 -1 -1 -2 -4 -3 -4 -5 -5 -5
4 3 6 11 11 13 11 11 9 8 7 8 8 7 6 6 6 6 6 6 6 5 5 5 4 4 3 2 2 1 1 1 0 -0 -1 -2 -3 -3 -4 -4 -4 -5 -5 -5
4 5 7 12 11 11 11 10 9 8 7 7 7 6 5 6 6 6 6 6 5 5 4 4 3 2 2 2 1 1 1 0 -1 -1 -2 -3 -4 -4 -4 -5 -5 -5 -5 -5
3 3 5 8 11 13 12 6 9 9 7 7 7 2 4 6 6 6 6 5 5 4 4 3 3 2 2 1 1 1 -0 -1 -2 -3 -4 -4 -4 -4 -5 -5 -5 -5 -5 -6
-2 0 4 7 11 12 7 7 9 9 7 6 5 7 6 6 5 5 5 5 4 4 3 2 2 2 1 1 0 -1 -2 -2 -3 -4 -4 -5 -5 -5 -5 -5 -5 -6 -6 -7
1 0 5 9 10 8 8 9 9 8 7 7 7 6 5 5 5 5 4 4 3 3 2 1 1 1 0 -0 -1 -2 -2 -3 -4 -4 -5 -5 -5 -5 -5 -5 -6 -6 -7 -8
6 6 9 11 12 13 12 11 8 8 7 7 6 5 5 5 4 4 4 3 2 2 1 0 -0 -1 -1 -1 -2 -2 -3 -4 -4 -5 -5 -6 -6 -6 -6 -6 -7 -7 -7 -8
7 9 9 11 11 11 10 10 8 7 7 6 5 5 4 4 4 3 3 2 1 1 0 -1 -1 -2 -2 -2 -3 -4 -4 -4 -5 -5 -5 -6 -7 -7 -7 -7 -7 -8 -8 -9
5 9 9 9 9 10 8 8 7 6 5 4 5 4 4 4 3 2 2 1 0 -0 -1 -1 -2 -2 -3 -3 -4 -5 -5 -5 -6 -6 -6 -7 -8 -8 -8 -8 -8 -9 -9 -9
5 11 10 9 8 7 7 6 6 5 4 4 5 4 4 3 2 1 1 0 -0 -1 -1 -1 -2 -3 -4 -5 -5 -6 -6 -6 -6 -7 -7 -8 -8 -9 -9 -9 -9 -9 -9 -10
10 10 10 9 7 6 6 5 5 5 4 4 4 3 3 2 2 1 0 -0 -1 -1 -2 -2 -2 -3 -4 -5 -6 -6 -6 -6 -7 -7 -8 -8 -9 -9 -10 -9 -9 -9 -9 -10
10 9 6 6 6 5 5 4 4 4 4 4 3 3 2 1 0 -0 -1 -1 -2 -2 -2 -3 -3 -4 -5 -6 -6 -6 -7 -7 -7 -8 -9 -9 -9 -9 -10 -10 -10 -10 -10 -10
8 8 8 6 5 5 5 4 4 4 3 3 3 2 1 -0 -1 -1 -2 -2 -2 -2 -2 -3 -4 -5 -6 -6 -6 -7 -7 -8 -8 -8 -8 -9 -10 -10 -10 -10 -10 -10 -10 -10
6 6 6 5 4 4 4 4 4 3 3 2 2 0 -0 -1 -2 -2 -2 -2 -2 -2 -2 -3 -5 -6 -6 -6 -6 -7 -7 -8 -8 -8 -9 -9 -10 -10 -10 -10 -10 -10 -10 -10
6 4 4 3 3 3 3 3 4 3 2 1 0 -1 -1 -2 -2 -2 -2 -2 -2 -3 -4 -4 -6 -6 -6 -6 -6 -7 -7 -7 -9 -9 -9 -9 -9 -9 -9 -10 -10 -10 -10 -10
5 4 3 3 3 3 3 3 2 1 1 -0 -1 -1 -2 -2 -2 -2 -2 -2 -4 -6 -7 -6 -6 -6 -6 -6 -6 -7 -7 -7 -8 -9 -10 -10 -10 -10 -9 -9 -10 -10 -10 -10
2 1 1 2 1 2 2 2 1 1 -0 -1 -2 -2 -2 -2 -3 -2 -3 -4 -6 -7 -6 -6 -6 -6 -7 -7 -7 -7 -7 -7 -8 -9 -10 -10 -10 -10 -9 -9 -9 -10 -10 -10
1 0 1 2 2 2 1 0 -0 -0 -1 -2 -2 -2 -2 -2 -3 -3 -3 -4 -5 -6 -6 -6 -6 -6 -7 -7 -7 -7 -7 -8 -8 -9 -9 -9 -10 -9 -9 -9 -9 -9 -10 -10
2 2 2 1 1 0 -0 -0 -1 -1 -2 -2 -2 -2 -2 -2 -3 -3 -4 -4 -4 -6 -6 -7 -7 -7 -7 -7 -7 -7 -8 -8 -8 -8 -9 -9 -9 -9 -9 -9 -9 -9 -9 -10
1 1 1 0 -0 -0 -1 -1 -2 -2 -2 -2 -2 -2 -2 -2 -3 -3 -4 -4 -4 -6 -6 -7 -7 -7 -7 -7 -7 -7 -7 -8 -8 -8 -8 -8 -9 -9 -10 -10 -10 -10 -10 -10
1 0 -0 -1 -1 -1 -1 -2 -2 -2 -2 -2 -2 -2 -2 -3 -3 -4 -4 -4 -5 -6 -6 -6 -7 -7 -7 -7 -7 -7 -7 -7 -7 -7 -7 -8 -8 -9 -9 -9 -10 -10 -10 -10
-0 -1 -1 -1 -2 -2 -2 -2 -2 -2 -2 -2 -2 -3 -3 -3 -4 -4 -5 -5 -5 -6 -6 -6 -7 -7 -7 -7 -7 -7 -7 -7 -7 -7 -7 -7 -8 -9 -9 -9 -10 -10 -10 -10
-1 -1 -2 -2 -2 -2 -2 -2 -2 -2 -2 -2 -3 -3 -4 -4 -4 -5 -6 -6 -7 -7 -7 -7 -7 -7 -7 -7 -7 -7 -7 -7 -7 -7 -7 -7 -8 -8 -9 -10 -10 -10 -10 -10
-2 -2 -2 -2 -2 -2 -2 -2 -3 -3 -3 -3 -3 -4 -4 -5 -5 -6 -6 -7 -7 -8 -8 -8 -9 -8 -8 -8 -8 -8 -8 -7 -7 -7 -7 -7 -8 -8 -9 -10 -10 -11 -11 -11
-2 -2 -2 -2 -3 -3 -3 -3 -3 -3 -4 -4 -4 -5 -5 -5 -6 -7 -7 -7 -8 -9 -9 -8 -7 -8 -9 -9 -8 -8 -8 -8 -8 -7 -7 -7 -8 -8 -9 -10 -10 -11 -11 -11

GFSNGP_850_temp_030.txt.gz
Temp
10 9 11 13 12 10 10 10 10 10 8 9 8 7 8 9 8 7 8 8 8 7 6 6 6 6 5 5 4 4 3 2 1 1 0 -0 -1 -1 -1 -2 -2 -4 -5 -4
10 8 8 11 11 9 9 10 8 9 8 8 8 9 8 8 8 8 8 7 7 6 6 6 6 5 5 4 3 3 2 1 1 0 -1 -1 -2 -2 -3 -3 -4 -5 -5 -5
7 5 6 7 8 9 9 8 9 8 9 6 6 7 7 7 8 8 7 7 7 6 6 6 5 4 4 3 2 2 1 1 -0 -1 -1 -2 -3 -3 -4 -4 -4 -5 -5 -5
3 3 6 10 10 9 9 10 8 9 8 7 8 8 9 9 9 8 7 6 6 6 5 5 4 3 3 2 1 1 1 -0 -1 -2 -2 -3 -4 -4 -5 -5 -5 -5 -5 -6
3 4 7 12 10 9 9 9 7 8 6 6 7 7 7 8 8 7 6 6 5 5 4 4 3 2 2 1 1 -0 -1 -1 -2 -2 -3 -3 -4 -4 -5 -5 -5 -5 -6 -6
0 4 5 9 9 11 11 7 9 9 6 5 6 3 5 9 8 7 6 5 5 4 4 3 2 2 1 1 -0 -1 -2 -2 -2 -3 -4 -4 -4 -5 -5 -5 -5 -6 -6 -7
-2 1 4 6 10 11 8 8 8 10 9 6 4 8 9 9 7 6 5 5 4 4 3 2 2 1 0 -0 -1 -2 -2 -2 -3 -4 -5 -5 -5 -5 -5 -5 -6 -6 -7 -7
1 -0 6 8 9 8 9 11 12 11 11 10 10 8 7 7 5 5 5 4 3 3 2 1 1 0 -1 -1 -1 -2 -2 -3 -4 -5 -5 -6 -6 -6 -6 -7 -7 -7 -8 -8
5 5 8 9 9 11 11 11 12 12 12 10 8 7 6 5 4 4 3 3 3 2 2 1 0 -0 -1 -1 -2 -2 -2 -4 -5 -5 -6 -6 -6 -7 -7 -7 -8 -8 -8 -9
6 9 7 10 11 11 10 11 11 11 10 9 8 6 5 4 2 2 3 2 2 1 1 0 -1 -1 -2 -2 -2 -3 -4 -5 -6 -6 -6 -6 -7 -7 -8 -8 -9 -9 -9 -9
4 6 9 11 12 12 11 10 10 10 9 8 7 5 4 3 2 2 2 2 1 1 -0 -1 -1 -1 -2 -2 -2 -3 -5 -6 -6 -6 -6 -7 -7 -8 -9 -9 -9 -10 -10 -10
5 11 10 11 12 12 11 11 9 8 7 6 5 5 3 2 2 2 2 1 0 -0 -1 -1 -1 -1 -2 -3 -3 -4 -5 -6 -7 -7 -7 -7 -8 -8 -9 -9 -10 -10 -10 -10
10 10 10 10 10 10 9 8 7 6 6 5 3 2 2 2 2 1 1 0 -0 -1 -1 -1 -1 -2 -2 -3 -4 -5 -6 -6 -7 -7 -7 -8 -8 -9 -9 -10 -10 -10 -10 -10
9 9 8 9 9 9 7 6 5 5 3 2 -0 1 2 2 1 0 -0 -1 -1 -1 -1 -2 -2 -2 -3 -4 -5 -6 -6 -6 -6 -7 -8 -8 -8 -8 -9 -10 -10 -10 -10 -10
8 7 7 7 7 5 5 5 3 2 0 -1 -0 1 0 1 0 -0 -1 -1 -1 -2 -2 -2 -2 -2 -3 -5 -6 -6 -6 -6 -6 -7 -8 -8 -8 -8 -9 -9 -10 -10 -10 -10
6 6 6 5 4 3 2 1 0 -1 -2 -0 -0 0 0 -0 -1 -1 -1 -2 -2 -2 -2 -2 -3 -4 -5 -6 -7 -7 -7 -7 -7 -7 -8 -8 -9 -9 -9 -9 -10 -10 -10 -10
4 3 3 2 1 -0 -1 -1 -2 -2 -1 0 1 -0 -0 -1 -1 -1 -2 -2 -2 -2 -3 -3 -4 -5 -6 -7 -7 -7 -7 -7 -7 -7 -7 -8 -9 -9 -10 -10 -10 -10 -9 -10
2 1 -0 -1 -1 -2 -2 -2 -1 -0 0 0 -0 -1 -1 -1 -2 -2 -2 -2 -2 -3 -3 -3 -4 -4 -5 -6 -7 -7 -7 -8 -7 -7 -7 -8 -8 -9 -9 -10 -10 -10 -10 -10
-0 -1 -1 -1 -1 -1 0 0 0 0 -0 -1 -1 -1 -1 -2 -2 -2 -3 -3 -3 -3 -3 -4 -4 -4 -5 -6 -7 -8 -8 -8 -7 -7 -8 -8 -8 -8 -9 -9 -10 -10 -10 -10
-0 -0 0 0 0 0 0 0 -0 -0 -1 -1 -2 -2 -2 -2 -2 -3 -3 -3 -3 -3 -4 -4 -4 -5 -5 -7 -7 -7 -8 -8 -8 -7 -8 -8 -8 -8 -8 -9 -9 -9 -9 -10
-1 -1 -0 -0 -0 -0 -1 -1 -1 -1 -2 -2 -2 -2 -2 -2 -2 -2 -3 -3 -2 -3 -4 -4 -5 -5 -5 -6 -7 -7 -7 -7 -8 -8 -7 -7 -7 -7 -8 -8 -8 -8 -8 -9
-1 -1 -1 -1 -1 -1 -1 -2 -2 -2 -2 -2 -2 -2 -2 -2 -2 -3 -3 -3 -3 -3 -4 -5 -5 -5 -6 -7 -8 -8 -8 -7 -8 -8 -8 -7 -7 -7 -7 -7 -7 -7 -8 -8
-1 -1 -1 -2 -2 -2 -2 -2 -3 -3 -3 -3 -3 -3 -3 -3 -3 -4 -4 -4 -4 -4 -6 -6 -6 -6 -7 -8 -9 -8 -8 -8 -9 -9 -8 -8 -8 -8 -7 -7 -7 -7 -7 -8
-2 -2 -2 -2 -2 -2 -2 -2 -3 -3 -3 -3 -3 -4 -4 -4 -4 -4 -4 -5 -6 -6 -6 -6 -7 -7 -8 -9 -10 -9 -9 -9 -9 -9 -9 -9 -9 -9 -8 -8 -8 -8 -8 -8
-2 -2 -3 -3 -3 -3 -3 -3 -3 -4 -4 -3 -4 -4 -4 -5 -6 -5 -5 -5 -6 -6 -6 -7 -7 -8 -8 -9 -8 -8 -8 -8 -8 -8 -9 -9 -9 -9 -9 -8 -8 -8 -8 -8
-3 -3 -3 -4 -4 -5 -5 -5 -5 -6 -6 -6 -6 -8 -7 -7 -7 -7 -6 -7 -7 -7 -7 -7 -8 -8 -9 -9 -9 -8 -8 -8 -8 -8 -8 -8 -9 -9 -9 -8 -8 -8 -8 -9
-4 -4 -4 -4 -5 -6 -7 -7 -7 -7 -8 -9 -9 -9 -9 -9 -8 -8 -8 -8 -8 -7 -8 -8 -8 -9 -9 -10 -9 -9 -9 -9 -8 -8 -9 -9 -9 -9 -9 -8 -8 -8 -9 -9

GFSNGP_850_temp_036.txt.gz
Temp
16 15 16 17 17 17 17 18 17 19 19 20 20 19 18 16 14 13 11 10 10 9 8 7 7 6 6 4 4 4 4 3 2 1 1 -0 -1 -2 -2 -2 -3 -4 -4 -5
14 14 14 15 17 17 17 18 17 18 18 20 18 16 16 14 13 12 11 10 9 9 8 7 6 6 5 4 4 4 3 2 1 1 0 -1 -2 -2 -3 -3 -3 -4 -4 -5
15 12 13 12 15 17 17 17 17 17 19 18 16 15 15 14 12 12 11 10 9 8 7 6 6 5 5 4 4 3 3 2 1 0 -1 -2 -2 -3 -3 -3 -4 -4 -5 -5
12 9 12 18 15 16 17 18 18 17 18 17 17 15 13 13 13 11 10 9 8 8 6 6 5 5 4 3 3 3 2 0 -0 -1 -2 -2 -3 -3 -4 -4 -4 -5 -5 -6
11 14 16 18 15 14 14 17 18 17 17 15 12 11 13 11 11 11 10 9 8 7 5 4 5 4 3 3 3 2 0 -1 -1 -2 -2 -3 -3 -4 -4 -4 -4 -5 -6 -6
9 12 13 16 13 12 14 15 15 14 15 12 12 14 17 12 9 9 9 8 6 5 5 4 3 4 3 1 1 -0 -0 -1 -2 -2 -3 -3 -4 -4 -5 -5 -5 -6 -6 -6
10 11 14 15 13 12 14 15 14 12 13 12 13 14 12 11 9 8 7 6 5 5 4 3 3 2 2 0 -0 -0 -0 -2 -3 -3 -3 -4 -4 -5 -5 -5 -6 -6 -7 -7
9 10 11 12 12 13 14 13 12 12 12 11 12 9 9 8 7 6 5 4 3 3 3 1 1 2 0 -0 -1 -0 -1 -3 -3 -4 -4 -5 -5 -5 -5 -5 -6 -7 -7 -8
13 15 13 12 13 12 11 11 12 11 11 10 9 8 7 6 5 4 3 2 2 1 2 1 2 1 0 -1 -0 -1 -1 -2 -4 -4 -5 -5 -5 -5 -5 -6 -6 -7 -7 -8
11 15 13 12 12 12 11 11 10 10 10 10 9 8 6 5 4 3 1 1 0 -0 -0 1 1 1 0 -1 -1 -1 -2 -4 -4 -5 -5 -5 -5 -6 -6 -6 -7 -7 -8 -8
12 13 13 12 11 10 10 10 9 9 8 8 8 7 5 3 1 0 1 0 -1 -0 0 0 0 0 -1 -1 -1 -2 -3 -4 -5 -5 -5 -5 -5 -6 -7 -7 -7 -8 -8 -8
12 10 10 11 9 8 8 8 7 7 6 5 5 4 3 0 0 0 -1 -1 -1 0 1 0 -0 -1 -1 -1 -2 -2 -3 -3 -5 -5 -6 -6 -6 -6 -7 -7 -8 -8 -8 -9
9 7 8 7 7 5 5 5 4 4 3 2 1 -1 -2 -2 -1 -2 -1 0 0 0 -0 -1 -1 -2 -2 -2 -2 -2 -3 -3 -4 -5 -6 -7 -7 -7 -7 -7 -8 -8 -8 -9
5 6 8 4 4 3 2 1 1 -0 -1 -2 -2 -2 -2 -2 -2 -1 -1 -0 0 -1 -1 -1 -2 -2 -2 -2 -3 -3 -3 -4 -6 -7 -7 -7 -7 -7 -7 -8 -8 -8 -8 -9
3 4 3 2 2 1 -1 -1 -1 -1 -1 -2 -2 -2 -2 -3 -1 -0 -0 -0 -1 -1 -2 -2 -2 -2 -3 -3 -3 -3 -4 -6 -6 -7 -7 -7 -7 -7 -7 -8 -8 -9 -8 -9
2 2 1 -0 -1 -2 -1 -1 -1 -2 -2 -2 -1 -1 -0 0 0 -1 -1 -2 -2 -2 -2 -2 -2 -3 -3 -3 -3 -4 -6 -6 -6 -7 -7 -7 -7 -8 -8 -8 -8 -8 -8 -9
1 -1 -1 -2 -1 -1 -1 -1 -1 -1 -0 -0 0 0 -1 -1 -1 -1 -2 -2 -2 -2 -2 -2 -2 -3 -3 -3 -4 -5 -5 -6 -6 -7 -7 -7 -8 -8 -7 -8 -8 -8 -8 -9
1 -0 -0 0 0 0 -0 -0 -1 -2 -2 -1 -1 -1 -2 -2 -2 -2 -2 -2 -2 -2 -2 -2 -3 -3 -3 -4 -4 -5 -5 -6 -7 -7 -7 -7 -7 -8 -8 -8 -8 -8 -8 -9
-1 -1 -2 -2 -2 -2 -1 -1 -1 -1 -2 -2 -2 -2 -2 -2 -3 -3 -3 -3 -2 -2 -2 -3 -3 -3 -3 -4 -5 -5 -5 -6 -6 -7 -7 -7 -7 -8 -8 -8 -8 -8 -8 -8
-2 -1 -1 -1 -1 -1 -2 -2 -2 -2 -3 -3 -3 -3 -3 -2 -3 -3 -3 -3 -3 -3 -3 -4 -4 -4 -4 -4 -5 -5 -6 -6 -8 -8 -8 -8 -8 -8 -8 -8 -8 -8 -8 -8
-1 -1 -1 -1 -2 -2 -2 -2 -2 -2 -3 -3 -3 -3 -3 -3 -3 -4 -4 -5 -5 -5 -5 -5 -5 -5 -6 -6 -6 -6 -7 -8 -8 -8 -8 -8 -8 -8 -8 -8 -8 -8 -8 -8
-2 -2 -2 -2 -3 -3 -3 -3 -3 -3 -3 -3 -4 -4 -4 -4 -4 -5 -6 -6 -7 -7 -8 -7 -7 -7 -6 -6 -7 -7 -8 -8 -8 -8 -8 -8 -8 -8 -8 -8 -8 -8 -8 -8
-2 -2 -3 -3 -3 -3 -4 -3 -3 -3 -4 -5 -5 -5 -6 -6 -8 -9 -8 -8 -9 -9 -9 -9 -8 -8 -7 -7 -7 -8 -8 -8 -9 -9 -9 -9 -9 -9 -9 -9 -8 -8 -9 -9
-3 -3 -3 -4 -4 -4 -4 -4 -4 -5 -6 -6 -6 -7 -7 -8 -8 -10 -10 -9 -9 -9 -9 -9 -8 -8 -8 -8 -8 -8 -8 -9 -9 -10 -10 -9 -9 -9 -9 -10 -10 -10 -9 -9
-4 -4 -4 -4 -5 -5 -5 -6 -6 -7 -7 -7 -8 -9 -10 -12 -12 -10 -11 -11 -11 -10 -10 -9 -8 -8 -8 -9 -9 -9 -9 -10 -10 -10 -10 -10 -10 -10 -10 -10 -10 -10 -10 -10
-5 -5 -5 -5 -6 -6 -7 -7 -8 -9 -9 -10 -11 -11 -11 -11 -13 -13 -13 -12 -12 -12 -11 -11 -11 -11 -11 -11 -11 -11 -11 -11 -11 -11 -11 -11 -11 -11 -11 -11 -11 -10 -10 -10
-5 -6 -6 -7 -7 -8 -8 -9 -9 -10 -11 -11 -11 -11 -12 -14 -14 -14 -13 -13 -13 -13 -13 -13 -13 -13 -13 -13 -13 -13 -13 -13 -13 -13 -13 -12 -12 -12 -12 -12 -12 -12 -11 -11

GFSNGP_850_temp_039.txt.gz
Temp
21 20 20 20 21 21 20 20 19 20 21 23 23 23 22 20 19 19 17 16 15 14 13 12 10 9 7 6 6 6 5 5 5 4 3 2 1 -0 -1 -1 -2 -2 -2 -3
17 19 18 18 20 20 21 21 21 21 21 23 21 22 20 20 19 18 17 15 14 13 12 11 9 8 8 6 6 5 5 4 4 3 2 1 0 -1 -1 -1 -1 -1 -2 -3
16 16 16 14 17 19 20 21 21 19 21 22 21 19 19 19 18 17 16 15 14 13 12 11 9 8 7 6 5 4 4 3 2 2 1 0 -0 -1 -1 -1 -2 -2 -3 -4
15 10 12 20 19 19 19 20 21 21 21 21 20 18 17 17 17 16 15 14 13 12 11 10 9 7 6 5 4 4 3 2 2 1 0 -0 -0 -1 -1 -2 -2 -2 -3 -4
12 15 18 19 20 18 17 19 20 19 19 20 17 15 16 16 15 15 14 13 12 11 10 9 7 6 5 4 4 3 2 2 1 1 -0 -0 -1 -1 -2 -2 -3 -3 -4 -4
13 12 12 17 17 16 17 16 17 17 18 17 16 16 17 14 13 13 13 12 11 10 9 7 6 4 4 3 3 2 2 1 0 -0 -1 -1 -1 -2 -2 -3 -3 -3 -4 -5
13 13 15 18 16 15 15 15 16 16 16 16 16 15 13 13 13 12 12 11 10 8 6 6 5 3 2 2 2 1 1 -0 -1 -1 -1 -2 -2 -3 -3 -3 -3 -5 -5 -5
13 10 11 16 16 15 15 15 15 15 15 14 14 13 11 11 12 11 10 9 7 6 5 3 1 1 1 2 1 0 -1 -2 -2 -2 -2 -3 -3 -3 -3 -3 -4 -5 -6 -6
16 16 16 15 16 15 14 14 14 13 13 13 13 12 12 11 10 9 8 6 5 4 1 -1 -1 -1 0 -0 0 -1 -1 -1 -2 -2 -2 -3 -3 -3 -3 -4 -5 -5 -6 -7
15 17 17 16 15 14 13 12 12 12 12 12 12 12 11 9 8 7 6 4 2 -1 -1 -2 -2 -1 -1 1 0 -0 -2 -3 -3 -3 -3 -3 -3 -3 -4 -5 -6 -6 -6 -7
15 16 15 15 13 11 10 11 11 11 10 9 9 10 9 7 6 4 1 -1 -1 -2 -2 -0 -1 -0 0 0 -0 -1 -3 -3 -3 -4 -4 -3 -3 -3 -4 -5 -6 -6 -7 -7
14 12 11 12 10 8 9 8 8 8 8 7 8 7 6 3 -0 -1 -1 -2 -2 -2 -1 -1 0 0 -1 -1 -2 -2 -2 -3 -4 -4 -4 -4 -4 -5 -6 -6 -6 -7 -7 -7
11 9 9 8 6 6 5 5 5 4 4 2 2 0 -1 -2 -2 -3 -3 -2 -2 -2 -1 -0 0 -1 -2 -2 -2 -2 -2 -3 -3 -4 -5 -6 -6 -6 -6 -6 -6 -6 -7 -8
7 8 8 6 5 4 2 0 0 -0 -1 -1 -1 -1 -2 -2 -1 -2 -2 -2 -1 -1 -1 -2 -2 -3 -3 -2 -2 -3 -3 -3 -4 -5 -5 -6 -6 -6 -6 -6 -6 -6 -7 -7
6 6 5 4 2 1 0 -1 -1 -1 -1 -1 -0 0 -1 -1 -1 -1 -1 -2 -1 -1 -2 -2 -2 -2 -2 -3 -3 -3 -4 -5 -5 -5 -6 -6 -6 -7 -7 -7 -7 -7 -7 -8
3 2 2 1 1 -0 -1 -1 -0 -1 -1 -0 -0 -1 -1 -1 -1 -2 -2 -2 -2 -2 -3 -2 -2 -2 -2 -3 -4 -4 -3 -4 -4 -5 -5 -5 -6 -6 -7 -7 -7 -7 -7 -7
2 1 0 0 -1 -0 0 -0 -0 0 -0 -1 -2 -1 -1 -1 -1 -2 -2 -2 -2 -2 -2 -2 -2 -2 -3 -3 -4 -4 -4 -4 -5 -5 -5 -6 -6 -6 -7 -7 -7 -7 -7 -7
2 1 0 0 -1 -1 -1 -2 -2 -2 -2 -1 -2 -2 -2 -2 -2 -2 -2 -2 -2 -2 -2 -2 -2 -3 -3 -3 -4 -4 -4 -5 -5 -5 -5 -6 -6 -6 -7 -7 -7 -7 -7 -7
1 0 0 -0 -1 -1 -1 -2 -2 -2 -2 -2 -2 -2 -2 -3 -3 -3 -3 -3 -2 -3 -3 -4 -4 -5 -5 -5 -5 -5 -5 -6 -6 -6 -6 -7 -7 -7 -7 -7 -7 -7 -7 -7
-0 -1 -1 -2 -1 -2 -2 -2 -3 -3 -2 -2 -2 -2 -2 -2 -3 -3 -3 -4 -4 -5 -5 -5 -6 -6 -7 -6 -6 -6 -6 -6 -7 -7 -7 -7 -7 -7 -7 -7 -7 -7 -7 -7
-1 -2 -1 -2 -2 -2 -2 -2 -2 -2 -2 -3 -3 -3 -4 -4 -4 -5 -6 -7 -6 -7 -7 -8 -8 -8 -8 -8 -7 -7 -6 -6 -7 -7 -7 -7 -8 -8 -8 -8 -8 -8 -8 -8
-2 -2 -2 -2 -3 -3 -3 -3 -3 -3 -3 -4 -4 -5 -5 -5 -6 -8 -8 -8 -8 -8 -9 -9 -8 -9 -9 -9 -8 -8 -7 -7 -7 -7 -8 -8 -8 -8 -8 -8 -8 -8 -8 -8
-3 -2 -2 -3 -3 -3 -3 -3 -4 -4 -5 -5 -6 -6 -7 -8 -9 -9 -9 -10 -11 -11 -11 -10 -10 -10 -9 -9 -8 -8 -8 -8 -8 -8 -9 -10 -10 -11 -10 -10 -10 -10 -10 -9
-3 -3 -3 -4 -4 -4 -6 -6 -6 -8 -8 -8 -9 -9 -9 -10 -11 -11 -11 -12 -12 -12 -12 -12 -12 -11 -11 -10 -10 -9 -9 -9 -10 -10 -10 -10 -12 -11 -11 -11 -11 -10 -10 -10
-4 -4 -4 -5 -6 -7 -8 -8 -8 -9 -10 -10 -11 -11 -11 -12 -13 -13 -13 -13 -14 -14 -14 -14 -13 -12 -13 -13 -13 -12 -12 -12 -12 -12 -12 -13 -13 -12 -12 -12 -12 -12 -12 -12
-6 -7 -7 -6 -7 -8 -9 -8 -9 -11 -11 -12 -12 -13 -13 -13 -13 -14 -14 -15 -15 -15 -15 -15 -14 -14 -14 -14 -14 -14 -14 -15 -14 -13 -13 -14 -14 -14 -13 -13 -12 -12 -12 -13
-6 -7 -9 -9 -10 -9 -9 -9 -11 -12 -13 -14 -14 -14 -14 -14 -15 -15 -16 -16 -16 -16 -16 -16 -16 -16 -15 -15 -15 -15 -15 -15 -15 -15 -15 -15 -15 -14 -14 -14 -14 -13 -13 -13

GFSNGP_850_temp_042.txt.gz
Temp
21 22 21 20 21 21 21 21 18 19 20 22 23 22 22 22 21 20 20 19 19 18 16 14 13 12 11 9 7 6 6 6 5 5 4 4 3 2 1 0 -1 -1 -1 -1
18 20 20 19 20 20 21 21 21 21 21 23 23 21 21 20 20 20 19 19 17 17 15 14 13 11 10 8 6 6 6 5 5 4 4 2 2 1 0 -0 -1 -1 -1 -2
16 17 16 13 17 19 20 21 21 19 21 22 22 22 20 19 19 19 18 18 17 16 15 14 13 11 9 8 7 6 5 4 3 3 2 1 1 0 -0 -0 -1 -2 -2 -2
14 11 13 18 21 20 19 20 21 21 20 20 18 18 18 18 18 17 17 16 16 15 14 13 12 10 9 7 6 5 4 3 2 2 1 1 0 -0 -0 -1 -1 -2 -2 -3
11 14 17 18 19 19 18 18 19 18 18 19 18 17 17 17 16 15 15 15 15 14 13 12 11 9 8 6 5 4 3 1 2 1 1 0 -0 -0 -1 -1 -2 -2 -3 -3
12 12 11 17 17 18 18 16 17 17 17 17 17 14 15 15 14 14 14 14 13 13 12 10 9 7 6 5 4 2 2 1 1 1 0 -1 -1 -1 -2 -2 -2 -3 -3 -3
12 11 14 18 17 16 15 14 16 15 16 15 15 14 13 13 13 13 13 13 12 11 9 8 6 5 4 3 1 -1 -1 -1 -0 -1 -1 -2 -2 -3 -3 -3 -3 -3 -3 -4
13 9 10 17 16 15 15 15 15 15 15 14 14 13 13 12 12 12 12 10 8 7 6 4 3 2 0 -1 -1 -0 -2 -1 1 -2 -3 -3 -3 -3 -3 -3 -3 -4 -4 -5
14 14 16 17 16 15 15 14 14 13 13 13 13 13 13 12 11 10 8 7 6 4 2 -0 -1 -0 -1 -2 -1 -1 -0 1 -0 -1 -3 -3 -2 -3 -3 -3 -3 -4 -5 -5
15 18 17 16 15 13 12 12 12 12 12 11 10 11 11 10 8 7 5 3 2 0 -0 0 -0 -2 -1 -1 -2 -1 1 -0 -2 -3 -3 -3 -3 -3 -3 -3 -4 -5 -5 -5
16 16 16 13 11 10 10 10 10 10 9 8 9 9 8 6 3 2 1 1 0 -1 -2 -1 -1 -1 -2 -1 -1 -1 -1 -2 -2 -2 -2 -3 -4 -3 -4 -4 -4 -5 -6 -6
13 12 12 10 9 9 8 7 7 7 5 5 5 4 5 2 0 0 -0 -0 -0 0 -1 -1 -2 -2 -2 -2 -1 -1 -2 -2 -2 -2 -3 -3 -3 -3 -4 -5 -5 -6 -6 -6
12 10 10 8 6 5 4 4 3 3 2 3 3 3 3 2 1 0 1 -0 -1 -2 -2 -2 -1 -0 -1 -2 -2 -2 -2 -2 -2 -3 -3 -4 -5 -6 -5 -5 -5 -6 -6 -6
8 8 7 8 5 2 1 1 2 1 1 1 0 0 -0 -0 -1 -1 -1 -2 -1 -1 -1 -2 -2 -2 -2 -2 -3 -3 -3 -3 -3 -3 -4 -4 -5 -6 -6 -6 -6 -6 -6 -7
7 7 6 4 3 2 1 -0 -1 -1 -1 -1 -1 -1 -0 -0 -0 -0 -1 -2 -2 -2 -2 -2 -2 -2 -2 -2 -2 -3 -3 -3 -3 -4 -4 -4 -4 -4 -5 -5 -6 -6 -6 -6
4 4 3 3 2 1 0 -0 -1 -0 0 -0 -0 -1 -1 -1 -1 -1 -2 -2 -2 -2 -2 -2 -2 -2 -2 -2 -3 -3 -3 -4 -4 -4 -4 -4 -4 -5 -5 -6 -6 -6 -6 -6
3 2 2 1 1 1 1 -0 -1 -1 -1 -0 -1 -1 -1 -1 -2 -2 -2 -2 -2 -2 -2 -2 -3 -3 -4 -4 -4 -4 -4 -4 -4 -4 -4 -5 -5 -5 -6 -6 -6 -7 -7 -6
2 2 1 0 0 -0 -0 -1 -1 -1 -1 -1 -2 -2 -2 -2 -2 -3 -3 -2 -2 -2 -3 -4 -4 -4 -5 -5 -6 -6 -5 -5 -5 -5 -5 -6 -6 -6 -6 -7 -7 -7 -7 -7
1 1 0 0 -0 -1 -2 -2 -2 -2 -2 -2 -2 -2 -3 -3 -3 -3 -3 -3 -4 -5 -6 -6 -6 -6 -6 -7 -7 -7 -7 -7 -7 -7 -6 -6 -7 -7 -7 -7 -7 -7 -7 -7
0 -1 -1 -1 -2 -1 -2 -3 -3 -3 -2 -3 -3 -2 -2 -3 -4 -4 -5 -6 -7 -7 -7 -7 -7 -8 -9 -8 -9 -9 -8 -8 -8 -7 -6 -6 -7 -7 -7 -7 -8 -7 -7 -7
-1 -2 -1 -1 -2 -2 -2 -3 -3 -3 -3 -3 -3 -3 -4 -5 -6 -7 -8 -8 -8 -8 -9 -9 -10 -10 -10 -10 -10 -9 -9 -9 -8 -8 -8 -6 -7 -8 -8 -8 -8 -8 -8 -8
-2 -2 -2 -3 -3 -3 -3 -3 -3 -4 -4 -4 -5 -5 -6 -7 -8 -9 -9 -9 -10 -10 -11 -11 -11 -11 -11 -11 -11 -10 -9 -9 -8 -8 -8 -7 -8 -8 -9 -10 -10 -10 -10 -10
-2 -2 -3 -3 -4 -4 -4 -4 -4 -4 -5 -6 -7 -7 -8 -9 -10 -10 -11 -11 -12 -12 -12 -13 -13 -12 -12 -12 -13 -13 -12 -11 -11 -10 -10 -11 -11 -11 -12 -12 -12 -12 -11 -10
-4 -4 -3 -4 -4 -5 -6 -5 -6 -8 -8 -8 -9 -10 -10 -10 -11 -12 -12 -13 -13 -13 -14 -15 -14 -13 -13 -13 -14 -14 -14 -14 -14 -13 -13 -13 -13 -13 -14 -14 -13 -13 -13 -13
-4 -4 -5 -6 -6 -7 -7 -7 -8 -9 -9 -9 -11 -11 -11 -12 -13 -13 -14 -14 -15 -15 -16 -16 -16 -15 -14 -14 -15 -15 -15 -16 -15 -15 -15 -15 -15 -15 -15 -15 -14 -14 -14 -14
-5 -6 -6 -6 -7 -8 -8 -8 -8 -10 -10 -11 -12 -12 -13 -13 -14 -14 -15 -15 -16 -16 -16 -17 -17 -17 -17 -17 -17 -17 -17 -17 -17 -16 -17 -16 -17 -16 -16 -16 -15 -15 -15 -15
-6 -7 -8 -8 -9 -9 -8 -9 -10 -10 -12 -13 -13 -13 -14 -14 -15 -15 -16 -16 -16 -17 -17 -18 -18 -18 -19 -19 -20 -20 -20 -19 -18 -19 -18 -18 -18 -18 -18 -17 -17 -17 -17 -16

GFSNGP_850_temp_045.txt.gz
Temp
17 18 18 19 19 18 18 16 13 14 16 17 18 17 19 19 20 20 19 18 18 17 16 15 14 13 12 11 10 9 8 7 6 5 4 3 3 1 2 2 1 0 -0 -1
16 17 16 15 16 17 17 17 18 17 17 18 19 19 18 19 19 19 18 18 18 17 16 15 13 12 11 10 10 8 7 6 6 5 4 3 1 2 1 1 0 -1 -1 -1
13 12 13 10 14 16 16 17 17 16 15 14 14 15 17 17 17 17 17 17 16 15 15 14 13 12 11 10 8 7 6 6 5 4 2 0 1 1 1 0 -0 -1 -1 -2
8 8 9 14 18 18 16 15 14 15 14 14 15 14 15 16 15 15 15 15 15 15 15 14 13 11 10 8 7 6 5 4 3 1 0 1 0 -1 -0 -0 -1 -1 -1 -2
8 8 12 15 16 17 15 14 14 13 13 15 16 15 13 14 14 14 14 14 14 14 13 12 11 10 9 7 6 5 4 3 1 -1 -0 -1 -0 -0 0 -2 -2 -2 -2 -2
7 8 7 12 16 17 16 10 13 14 12 12 14 8 9 13 13 13 13 13 12 12 11 10 8 8 6 5 4 3 2 -0 -2 -2 -1 -0 -0 1 -1 -3 -3 -3 -3 -3
4 5 8 14 16 16 11 9 14 14 13 14 10 12 12 13 12 11 11 11 10 10 8 6 6 6 5 3 2 0 -1 -1 -1 -2 -2 0 -0 -2 -1 -2 -3 -3 -3 -3
6 7 9 16 15 12 11 13 13 13 13 13 13 13 12 11 10 9 9 8 8 8 6 4 4 4 2 1 -1 -0 0 1 0 -1 -0 -1 -1 -2 -2 -3 -3 -3 -3 -3
9 8 12 14 12 12 12 12 12 12 12 11 11 11 10 9 8 7 7 7 6 6 4 3 3 2 2 1 1 1 0 -1 -1 -1 -1 -1 -2 -3 -3 -3 -3 -3 -3 -4
11 13 12 10 11 11 11 10 10 10 10 10 10 9 8 7 6 5 4 4 3 3 3 3 2 2 1 -0 -1 -1 -1 -1 -1 -1 -2 -2 -3 -3 -3 -4 -4 -4 -4 -5
11 10 9 9 9 9 9 9 9 8 8 8 9 6 6 5 4 3 3 2 2 2 1 -0 -1 -1 -1 -1 -1 -1 -1 -1 -1 -2 -2 -2 -2 -3 -3 -4 -4 -4 -5 -5
6 9 8 7 7 8 8 6 6 7 6 5 5 4 4 3 2 1 0 -0 -0 -1 -1 -1 -1 -2 -2 -2 -2 -2 -2 -2 -2 -2 -2 -2 -3 -3 -3 -4 -4 -4 -5 -6
9 9 7 6 6 6 6 5 4 4 4 3 2 2 1 0 -0 -0 -1 -1 -1 -2 -2 -2 -2 -2 -2 -2 -2 -2 -2 -2 -2 -2 -3 -3 -3 -4 -4 -3 -4 -4 -5 -5
8 7 5 5 2 3 4 2 2 2 1 1 0 0 -0 -0 -1 -1 -1 -1 -1 -1 -2 -2 -2 -2 -2 -2 -2 -3 -3 -3 -3 -3 -3 -3 -4 -4 -4 -4 -4 -4 -5 -5
7 8 5 2 2 1 1 1 1 0 -0 -1 -1 -0 -1 -1 -1 -1 -1 -2 -2 -2 -2 -2 -2 -2 -2 -2 -2 -3 -3 -4 -4 -4 -4 -4 -4 -4 -4 -4 -5 -5 -5 -5
4 3 2 2 1 -0 0 -0 -1 -1 -1 -0 -0 -0 -1 -1 -1 -2 -2 -2 -2 -2 -3 -3 -3 -4 -4 -5 -5 -5 -5 -5 -5 -5 -5 -5 -5 -5 -5 -5 -6 -6 -6 -6
3 2 1 1 0 -0 -1 -1 -1 -0 -0 -0 -1 -2 -2 -2 -2 -2 -3 -3 -3 -3 -4 -5 -6 -6 -6 -6 -6 -6 -6 -6 -7 -7 -7 -7 -6 -6 -6 -6 -6 -7 -7 -7
3 2 1 1 0 -0 -1 -0 -1 -1 -1 -2 -2 -2 -2 -2 -3 -3 -3 -3 -4 -5 -6 -6 -6 -7 -7 -7 -7 -8 -8 -9 -8 -8 -8 -8 -8 -7 -7 -6 -7 -7 -7 -7
2 1 1 0 -0 -0 -1 -2 -2 -2 -2 -3 -2 -2 -3 -3 -3 -4 -4 -5 -6 -7 -8 -8 -8 -8 -8 -9 -10 -10 -9 -9 -9 -9 -9 -9 -9 -8 -7 -7 -7 -7 -7 -8
0 0 -0 -1 -1 -1 -2 -3 -3 -3 -3 -3 -3 -3 -3 -4 -4 -5 -6 -8 -8 -9 -9 -9 -10 -10 -11 -10 -10 -11 -11 -11 -10 -10 -9 -9 -9 -8 -7 -7 -8 -8 -8 -8
-0 -1 -1 -1 -2 -3 -3 -3 -3 -3 -3 -3 -3 -3 -4 -5 -6 -7 -8 -10 -10 -11 -11 -11 -11 -11 -12 -12 -12 -12 -13 -13 -12 -12 -11 -11 -10 -10 -10 -10 -9 -9 -10 -9
-1 -1 -2 -2 -2 -3 -4 -4 -4 -4 -4 -4 -4 -5 -6 -7 -8 -9 -11 -11 -12 -12 -12 -13 -13 -13 -13 -13 -13 -13 -14 -14 -14 -14 -13 -13 -13 -13 -13 -12 -12 -12 -12 -11
-2 -3 -3 -4 -4 -4 -5 -5 -4 -5 -5 -6 -6 -7 -8 -9 -10 -11 -12 -13 -13 -13 -13 -14 -15 -14 -13 -14 -14 -14 -15 -15 -15 -15 -15 -15 -15 -15 -15 -15 -14 -14 -14 -13
-3 -4 -4 -5 -5 -5 -5 -7 -7 -7 -8 -8 -8 -9 -10 -11 -12 -12 -13 -14 -14 -14 -15 -16 -16 -16 -15 -15 -16 -16 -16 -16 -16 -16 -16 -16 -16 -16 -16 -16 -15 -15 -15 -14
-4 -5 -5 -6 -6 -6 -6 -7 -8 -8 -8 -8 -9 -10 -11 -12 -13 -13 -14 -15 -15 -16 -16 -17 -17 -18 -18 -18 -18 -17 -18 -17 -18 -18 -18 -18 -18 -18 -18 -17 -17 -17 -16 -16
-5 -5 -6 -6 -6 -7 -7 -7 -7 -8 -9 -9 -10 -11 -12 -14 -14 -14 -15 -15 -16 -17 -17 -18 -18 -19 -19 -19 -19 -19 -19 -18 -19 -19 -19 -19 -19 -19 -19 -18 -18 -18 -18 -18
-6 -7 -7 -7 -8 -8 -8 -8 -8 -10 -11 -11 -12 -13 -14 -15 -15 -15 -16 -16 -17 -17 -18 -19 -19 -19 -19 -20 -20 -20 -19 -20 -20 -19 -19 -20 -20 -19 -19 -19 -19 -19 -19 -18

GFSNGP_850_temp_048.txt.gz
Temp
15 16 17 17 18 18 16 15 13 14 13 15 15 16 15 18 18 18 17 17 17 16 16 15 14 13 13 13 12 11 9 8 7 7 5 4 3 2 1 1 1 1 1 1
16 14 15 16 16 16 16 17 16 16 16 11 14 16 16 16 17 16 17 18 17 16 15 14 14 13 13 12 10 9 8 7 6 5 4 4 2 1 1 -0 -0 1 0 0
12 11 13 10 14 15 16 15 15 13 14 13 11 12 13 14 15 15 15 16 16 16 15 15 14 13 12 11 9 7 6 6 5 4 4 3 2 -0 -2 -0 -1 -1 -0 -1
7 8 9 13 15 15 12 12 12 12 12 11 11 12 13 14 14 14 14 14 14 14 14 13 13 12 10 8 7 6 6 5 4 3 1 -0 -1 -0 0 -1 -0 -0 -1 -2
7 7 11 14 15 14 13 13 13 11 12 12 12 13 12 12 13 13 13 13 14 14 13 12 11 10 8 7 6 5 4 3 2 0 -1 0 0 -0 -1 -1 -1 -1 -2 -2
5 8 8 11 14 15 13 9 12 11 11 12 12 8 8 11 12 12 13 12 12 12 12 11 9 8 7 5 4 3 2 0 -1 0 1 1 -1 -1 -1 -1 -1 -2 -2 -3
2 5 7 10 14 15 11 10 12 13 12 12 9 10 9 10 11 11 11 10 10 10 10 8 6 6 5 3 2 1 -0 -0 0 0 -1 -2 -1 -1 -1 -1 -2 -2 -3 -3
4 5 9 13 14 12 10 11 12 12 12 11 11 10 8 8 8 8 9 7 7 7 6 4 4 4 3 2 1 1 1 0 -0 -1 -1 -1 -1 -1 -1 -2 -2 -3 -3 -3
8 7 10 12 12 12 12 12 11 12 11 11 10 8 7 7 6 6 5 5 4 4 3 2 2 2 2 1 0 -0 -0 -1 -1 -1 -1 -1 -1 -1 -2 -3 -3 -3 -3 -3
9 9 8 9 10 11 12 11 10 10 10 10 9 6 6 4 3 3 3 2 2 2 1 1 0 -0 -1 -1 -1 -1 -1 -1 -1 -0 -1 -1 -2 -2 -2 -2 -3 -3 -4 -4
7 7 8 8 7 8 9 9 9 9 9 9 8 4 4 3 2 2 1 1 1 0 -0 -1 -1 -1 -1 -1 -1 -1 -1 -1 -1 -1 -2 -2 -2 -2 -2 -3 -3 -3 -3 -4
6 9 7 6 6 7 8 7 7 8 6 4 5 3 2 1 0 0 -0 -1 -1 -1 -1 -1 -1 -1 -2 -2 -2 -2 -2 -2 -2 -2 -3 -3 -3 -3 -3 -3 -3 -4 -4 -4
7 9 8 5 5 6 7 5 5 5 4 3 2 2 1 -0 -1 -1 -1 -1 -1 -1 -1 -2 -2 -2 -2 -2 -2 -3 -3 -3 -3 -4 -4 -4 -4 -4 -4 -4 -4 -4 -4 -5
9 8 3 5 3 4 4 3 3 2 1 1 0 -0 -1 -1 -1 -1 -1 -2 -2 -2 -2 -2 -2 -2 -2 -3 -3 -3 -4 -4 -5 -5 -5 -5 -5 -5 -5 -5 -5 -5 -4 -5
6 8 6 3 2 2 2 1 1 -0 -1 -1 -1 -1 -1 -1 -1 -2 -2 -2 -2 -2 -2 -2 -3 -3 -4 -4 -4 -5 -5 -6 -6 -6 -6 -6 -6 -7 -7 -7 -7 -6 -6 -5
5 5 3 2 1 0 0 -0 -0 -1 -1 -1 -1 -1 -2 -2 -2 -2 -2 -2 -2 -2 -3 -4 -4 -5 -6 -6 -6 -6 -6 -6 -7 -8 -8 -8 -8 -8 -8 -9 -8 -7 -7 -6
2 0 1 -0 -0 -1 -0 -0 -0 -1 -1 -1 -1 -2 -2 -2 -2 -2 -2 -3 -4 -4 -5 -6 -6 -7 -7 -7 -7 -7 -8 -8 -9 -9 -10 -9 -9 -9 -10 -10 -9 -8 -8 -7
4 2 2 1 -0 -1 -1 -1 -1 -1 -1 -1 -2 -2 -2 -2 -2 -3 -3 -4 -5 -6 -6 -7 -7 -8 -8 -8 -9 -9 -10 -10 -10 -11 -11 -11 -10 -10 -10 -10 -10 -9 -8 -7
2 1 0 0 -0 -0 -1 -1 -1 -2 -2 -2 -2 -2 -3 -3 -4 -4 -5 -5 -5 -6 -7 -8 -9 -9 -9 -10 -11 -11 -11 -12 -12 -12 -12 -12 -11 -11 -11 -11 -10 -9 -8 -8
0 0 -0 -1 -1 -0 -2 -2 -2 -3 -3 -3 -3 -4 -4 -4 -5 -5 -6 -7 -8 -9 -10 -10 -10 -11 -11 -12 -12 -12 -13 -13 -13 -13 -13 -13 -13 -13 -13 -13 -12 -11 -11 -11
-1 -1 -2 -2 -1 -2 -2 -3 -3 -3 -4 -4 -4 -4 -5 -5 -6 -7 -7 -9 -10 -11 -12 -12 -12 -12 -12 -13 -13 -13 -13 -13 -14 -14 -14 -14 -15 -15 -14 -14 -14 -14 -14 -13
-2 -2 -2 -2 -2 -3 -4 -4 -4 -4 -4 -5 -5 -5 -6 -6 -7 -8 -10 -11 -12 -13 -13 -14 -14 -13 -13 -13 -14 -14 -14 -14 -15 -15 -15 -15 -16 -16 -16 -16 -15 -15 -15 -15
-2 -2 -3 -3 -3 -4 -4 -5 -5 -5 -5 -5 -6 -6 -7 -8 -9 -10 -11 -13 -14 -14 -15 -15 -15 -15 -14 -14 -14 -15 -15 -16 -16 -16 -17 -17 -17 -17 -17 -17 -17 -17 -16 -16
-4 -4 -4 -4 -4 -5 -5 -6 -7 -7 -7 -7 -8 -9 -10 -10 -11 -12 -13 -14 -15 -15 -15 -16 -15 -15 -15 -16 -16 -16 -16 -17 -17 -17 -18 -18 -18 -18 -18 -18 -18 -18 -18 -18
-4 -5 -5 -5 -6 -6 -7 -7 -8 -8 -9 -9 -10 -11 -11 -12 -12 -13 -14 -15 -15 -16 -16 -16 -16 -17 -17 -17 -17 -17 -18 -18 -18 -18 -18 -18 -18 -18 -19 -19 -19 -19 -19 -19
-5 -6 -6 -7 -7 -7 -8 -8 -8 -8 -9 -10 -11 -12 -12 -13 -14 -15 -15 -16 -16 -16 -16 -16 -17 -18 -18 -18 -18 -18 -18 -19 -19 -19 -19 -19 -19 -19 -19 -19 -19 -19 -19 -19
-7 -7 -7 -8 -8 -8 -8 -8 -9 -9 -10 -11 -12 -13 -13 -14 -15 -16 -16 -16 -17 -17 -17 -17 -18 -19 -19 -19 -19 -19 -19 -19 -19 -19 -19 -19 -19 -19 -19 -20 -20 -19 -20 -19

GFSNGP_850_temp_051.txt.gz
Temp
14 15 16 17 17 14 14 13 12 13 12 14 13 14 14 16 17 18 18 16 16 16 16 16 15 15 15 13 12 12 10 10 9 7 6 6 5 3 2 1 0 0 0 -0
14 14 15 15 15 14 14 15 13 14 14 13 13 13 13 13 15 15 16 16 16 16 16 15 14 13 14 11 10 10 9 8 7 6 6 4 3 3 2 -0 -1 -1 -0 -1
12 11 12 10 12 14 15 15 14 13 13 13 11 10 11 13 14 14 15 15 16 15 15 14 13 12 11 10 9 9 8 6 6 5 4 3 2 1 -1 -1 0 -0 -1 -1
7 8 9 13 13 14 13 12 11 12 11 10 10 10 11 12 13 13 14 14 14 14 14 13 12 12 11 9 8 7 6 5 5 3 2 0 -0 -1 -0 -0 -1 -1 -1 -1
8 7 10 14 12 12 12 13 12 10 9 10 11 12 11 12 13 13 13 13 14 13 13 13 11 10 9 7 6 6 5 3 2 1 -0 -1 0 0 -0 -1 -1 -1 -1 -1
4 8 8 11 13 14 12 9 11 11 9 10 10 8 7 10 11 12 12 12 12 11 11 10 9 8 7 6 5 3 1 1 -0 -0 -0 0 1 -1 -1 -1 -1 -1 -1 -2
3 6 7 10 12 14 11 10 12 12 12 11 8 9 10 9 10 10 10 10 9 9 9 8 6 5 5 3 2 0 -0 -0 -0 0 -0 -1 -1 -1 -1 -1 -1 -1 -1 -2
4 5 10 12 12 11 10 11 12 12 12 11 10 9 9 8 8 7 7 6 6 6 4 3 3 4 3 2 1 1 0 -0 -0 -0 -1 -1 -1 -1 -1 -1 -2 -2 -2 -2
8 8 9 10 12 13 13 13 11 12 11 12 9 8 7 6 5 4 4 4 4 4 3 2 2 2 2 1 0 -0 -0 -1 -1 -1 -1 -1 -1 -1 -2 -2 -2 -2 -2 -2
8 9 7 8 10 12 12 12 11 11 11 11 9 6 5 4 3 3 3 3 3 2 2 1 1 0 -0 -1 -1 -1 -1 -1 -1 -2 -2 -2 -2 -2 -3 -3 -3 -3 -3 -3
6 7 7 7 9 10 10 10 10 9 9 9 9 4 4 2 2 2 2 1 1 1 -0 -1 -2 -2 -1 -1 -1 -1 -2 -2 -2 -2 -3 -3 -3 -3 -3 -4 -4 -4 -4 -4
6 8 8 7 7 8 9 8 8 9 7 5 5 4 3 1 1 0 -0 -1 -1 -1 -1 -2 -2 -2 -2 -2 -2 -2 -2 -2 -3 -3 -3 -4 -4 -3 -4 -4 -4 -4 -4 -5
9 9 9 7 6 6 8 7 7 7 6 4 2 2 1 0 -1 -1 -1 -1 -1 -1 -1 -2 -2 -2 -2 -2 -2 -2 -3 -3 -4 -4 -4 -5 -5 -5 -5 -4 -5 -5 -5 -5
10 9 3 5 4 5 6 5 4 3 2 2 1 0 -0 -1 -2 -1 -1 -1 -2 -2 -2 -2 -2 -2 -2 -3 -3 -3 -4 -4 -5 -5 -6 -6 -7 -7 -8 -9 -9 -7 -7 -8
6 8 7 5 4 3 3 2 2 1 -0 -1 -1 -1 -1 -1 -2 -2 -2 -2 -2 -2 -2 -2 -3 -3 -3 -4 -4 -5 -5 -6 -6 -7 -7 -8 -8 -9 -9 -9 -9 -10 -9 -8
5 6 4 4 2 1 1 1 1 -1 -1 -1 -1 -1 -1 -1 -2 -2 -2 -2 -2 -2 -2 -3 -4 -5 -5 -5 -5 -6 -6 -7 -7 -8 -9 -9 -10 -11 -11 -10 -11 -11 -10 -9
1 -1 0 -1 -0 -0 -0 -0 -0 -1 -1 -1 -1 -2 -2 -2 -2 -2 -2 -2 -3 -4 -4 -5 -6 -6 -6 -7 -7 -7 -8 -8 -9 -10 -11 -12 -12 -12 -12 -12 -11 -12 -11 -10
6 3 2 3 0 -0 -1 -1 -1 -1 -1 -2 -2 -3 -2 -2 -2 -3 -3 -4 -5 -6 -6 -6 -7 -7 -8 -8 -8 -9 -10 -10 -11 -12 -12 -12 -13 -13 -13 -13 -13 -12 -12 -11
4 3 1 1 0 -0 -1 -1 -2 -1 -2 -2 -2 -2 -2 -3 -3 -4 -5 -6 -6 -7 -7 -7 -8 -9 -9 -10 -10 -11 -11 -12 -12 -12 -13 -13 -13 -13 -14 -14 -14 -14 -14 -13
1 1 0 0 -0 -1 -2 -2 -2 -2 -3 -3 -3 -3 -3 -4 -4 -5 -6 -6 -7 -8 -9 -9 -10 -10 -11 -11 -11 -12 -12 -13 -13 -13 -14 -14 -14 -14 -14 -15 -15 -15 -15 -15
0 -0 -1 -1 -2 -2 -1 -2 -2 -2 -3 -4 -4 -4 -4 -5 -6 -7 -8 -8 -9 -9 -10 -10 -11 -11 -12 -12 -13 -13 -14 -14 -14 -14 -14 -15 -15 -15 -15 -16 -16 -16 -16 -16
-1 -1 -2 -3 -2 -3 -3 -3 -3 -3 -4 -5 -5 -5 -6 -7 -7 -8 -8 -9 -10 -11 -12 -13 -13 -13 -13 -13 -14 -14 -14 -15 -15 -15 -15 -16 -16 -16 -16 -17 -17 -17 -17 -17
-2 -2 -3 -3 -4 -4 -5 -4 -5 -5 -5 -6 -6 -7 -7 -8 -9 -9 -10 -11 -12 -13 -14 -15 -15 -15 -15 -15 -15 -15 -15 -16 -16 -16 -17 -17 -17 -18 -18 -18 -18 -18 -18 -18
-3 -4 -4 -4 -5 -4 -5 -6 -6 -7 -7 -7 -7 -8 -9 -9 -10 -10 -12 -13 -15 -15 -16 -16 -16 -16 -16 -16 -16 -16 -16 -16 -17 -17 -18 -18 -18 -18 -18 -18 -18 -18 -19 -19
-4 -5 -5 -5 -5 -6 -6 -7 -7 -8 -8 -9 -9 -9 -10 -10 -11 -12 -14 -15 -16 -16 -16 -16 -16 -17 -17 -16 -16 -16 -17 -17 -18 -18 -18 -18 -18 -18 -19 -19 -19 -19 -19 -19
-5 -6 -6 -7 -7 -7 -7 -8 -8 -9 -9 -9 -9 -10 -11 -12 -13 -14 -15 -16 -16 -17 -17 -17 -17 -17 -17 -17 -17 -17 -18 -18 -19 -19 -19 -19 -19 -19 -19 -19 -19 -19 -20 -20
-6 -7 -8 -8 -8 -9 -9 -9 -9 -9 -10 -10 -11 -12 -13 -14 -15 -16 -16 -17 -17 -17 -17 -17 -18 -18 -18 -18 -18 -18 -19 -19 -19 -19 -19 -19 -19 -19 -20 -20 -20 -20 -20 -20

GFSNGP_850_temp_054.txt.gz
Temp
13 14 14 14 15 12 12 12 12 13 11 13 13 11 12 14 16 16 16 18 17 17 16 15 15 14 16 15 15 14 13 12 10 8 7 7 5 5 3 2 1 -0 -1 -0
14 13 13 15 14 11 12 13 12 13 12 11 12 12 11 12 13 13 13 14 15 15 14 14 14 13 13 14 13 11 10 9 8 7 5 5 4 3 2 -0 -0 -1 -0 -1
12 11 12 10 12 12 13 12 13 11 12 10 10 10 10 11 11 12 12 13 14 14 14 13 12 12 11 10 10 9 8 7 6 5 4 3 2 0 -0 -1 -0 -0 -0 -1
7 7 8 13 12 12 12 12 11 10 11 10 9 9 9 10 11 12 12 13 13 13 13 13 12 11 10 8 8 7 6 6 5 4 2 1 -1 -1 -1 -0 -0 -0 -1 -1
8 8 10 12 12 11 12 11 10 9 8 8 9 10 8 9 10 11 11 12 12 12 13 12 11 10 8 7 6 5 4 3 2 1 -0 -1 -0 -0 0 -0 -1 -1 -1 -1
4 8 9 10 12 12 12 10 10 9 7 7 9 8 6 7 8 9 10 11 11 11 11 9 9 7 6 5 4 3 2 1 -0 -1 -0 -0 0 -0 -1 -1 -1 -1 -1 -1
2 5 7 10 12 14 11 10 11 11 10 10 8 8 8 8 9 9 9 9 8 7 7 6 5 4 4 3 2 1 0 0 -0 0 0 -0 -1 -1 -1 -1 -1 -1 -1 -1
4 5 10 11 11 11 10 12 13 12 12 10 10 8 7 7 7 7 7 6 5 6 4 3 3 3 2 2 1 1 1 0 -0 -1 -1 -1 -1 -1 -1 -2 -2 -2 -2 -2
9 9 9 11 12 13 14 13 12 13 12 12 10 7 6 6 5 5 5 4 3 3 2 1 1 1 1 0 -0 -0 -1 -1 -1 -1 -1 -2 -2 -2 -3 -3 -3 -3 -4 -3
9 9 8 9 10 12 13 13 13 13 13 12 11 7 6 5 4 3 3 3 2 2 1 1 0 0 0 -0 -1 -1 -1 -1 -1 -2 -2 -2 -3 -3 -3 -3 -4 -4 -4 -5
7 6 7 8 9 10 11 12 12 11 12 11 10 6 5 3 2 2 2 1 1 1 1 -0 -1 -0 -1 -1 -1 -1 -1 -2 -2 -2 -2 -3 -3 -3 -4 -4 -5 -5 -5 -6
8 10 10 9 10 9 11 10 10 11 8 7 7 6 3 2 1 1 1 0 0 -0 -0 -1 -1 -1 -1 -1 -2 -2 -2 -2 -3 -3 -3 -3 -4 -4 -4 -5 -5 -6 -7 -8
11 11 9 9 8 8 9 8 8 8 8 6 4 4 2 1 0 0 -0 -1 -1 -1 -1 -2 -2 -2 -2 -2 -2 -3 -3 -3 -3 -4 -4 -5 -5 -6 -5 -5 -6 -7 -8 -9
10 9 4 5 6 6 7 6 6 6 4 4 3 2 1 0 -1 -1 -1 -1 -2 -2 -2 -2 -2 -2 -2 -3 -3 -3 -4 -4 -5 -5 -6 -7 -7 -8 -9 -10 -10 -9 -9 -10
6 8 9 7 5 4 5 5 4 3 2 1 1 1 0 -1 -1 -1 -2 -2 -2 -2 -2 -3 -3 -3 -3 -4 -4 -4 -5 -6 -6 -7 -7 -8 -9 -10 -11 -11 -12 -12 -11 -10
5 6 5 5 3 3 3 2 3 1 0 -0 -1 -1 -1 -1 -2 -2 -3 -3 -3 -2 -3 -3 -4 -4 -4 -5 -5 -6 -7 -7 -8 -8 -9 -10 -10 -11 -11 -12 -13 -13 -13 -13
2 -1 1 -0 1 1 1 2 2 0 -1 -1 -1 -2 -2 -2 -2 -3 -3 -3 -4 -4 -4 -5 -5 -5 -6 -7 -7 -8 -8 -9 -9 -10 -10 -11 -12 -12 -13 -13 -13 -14 -14 -14
6 4 2 3 2 1 0 0 -0 -1 -1 -2 -2 -2 -2 -2 -2 -3 -4 -4 -5 -5 -5 -6 -6 -7 -8 -8 -9 -9 -9 -10 -10 -11 -12 -12 -13 -13 -13 -14 -14 -14 -14 -14
4 3 2 1 0 -0 -1 -2 -2 -2 -2 -2 -2 -3 -3 -3 -3 -4 -4 -5 -6 -6 -6 -7 -8 -8 -9 -9 -9 -10 -11 -11 -11 -12 -13 -13 -13 -14 -14 -14 -15 -15 -15 -15
1 1 0 -0 -1 -1 -2 -3 -3 -3 -3 -3 -3 -3 -3 -4 -4 -5 -5 -6 -7 -7 -8 -8 -9 -10 -10 -10 -11 -11 -12 -12 -13 -13 -14 -14 -14 -15 -15 -15 -16 -16 -16 -16
1 -0 -0 -1 -2 -3 -3 -3 -3 -3 -3 -3 -3 -3 -4 -5 -6 -6 -7 -7 -8 -9 -9 -10 -11 -11 -11 -11 -11 -12 -13 -13 -14 -14 -14 -15 -15 -15 -16 -16 -16 -16 -17 -17
-1 -1 -2 -2 -3 -3 -4 -3 -3 -3 -3 -4 -4 -5 -5 -6 -6 -7 -8 -9 -9 -10 -11 -11 -12 -12 -12 -12 -13 -14 -14 -15 -15 -15 -16 -16 -16 -16 -16 -17 -17 -17 -17 -18
-2 -2 -3 -3 -4 -4 -4 -4 -4 -4 -5 -5 -6 -6 -6 -7 -8 -8 -9 -10 -11 -12 -12 -12 -13 -14 -14 -14 -15 -15 -16 -16 -16 -16 -16 -17 -17 -17 -17 -18 -18 -18 -18 -18
-3 -4 -5 -5 -5 -5 -5 -7 -6 -6 -6 -6 -7 -7 -8 -8 -9 -10 -10 -11 -12 -13 -14 -14 -15 -15 -16 -16 -16 -17 -17 -17 -17 -17 -17 -17 -18 -18 -18 -18 -18 -19 -19 -19
-4 -4 -5 -5 -5 -6 -7 -6 -7 -7 -7 -8 -8 -8 -9 -10 -10 -11 -12 -13 -14 -15 -15 -16 -16 -17 -17 -17 -17 -18 -18 -18 -18 -18 -18 -18 -18 -18 -19 -19 -19 -19 -19 -19
-5 -6 -6 -7 -8 -8 -7 -8 -8 -9 -9 -9 -10 -10 -11 -11 -12 -13 -14 -14 -15 -16 -17 -17 -17 -18 -18 -18 -18 -18 -18 -18 -18 -19 -19 -19 -19 -19 -19 -19 -19 -20 -20 -20
-7 -7 -8 -8 -9 -10 -10 -10 -10 -10 -10 -11 -11 -12 -12 -13 -13 -14 -15 -16 -17 -17 -18 -18 -18 -19 -19 -19 -19 -19 -19 -19 -19 -19 -19 -19 -19 -20 -20 -20 -20 -20 -20 -20

GFSNGP_850_temp_060.txt.gz
Temp
20 20 21 20 20 20 19 19 19 20 20 21 22 22 22 17 16 16 15 15 16 15 15 14 12 11 12 12 11 10 10 10 9 9 9 8 8 7 6 6 5 3 2 2
18 20 19 19 20 20 20 20 20 20 20 22 21 19 17 16 16 15 13 12 12 13 12 11 10 9 11 10 9 9 9 9 8 8 7 7 6 5 5 4 3 2 1 1
17 17 17 14 17 20 19 19 19 19 21 22 20 19 17 15 14 13 11 10 10 10 9 9 10 10 10 9 8 8 8 7 6 6 6 5 4 3 3 2 1 1 1 1
16 11 13 19 18 20 20 20 21 20 20 20 20 17 13 12 12 10 9 9 8 8 8 9 9 9 8 7 7 7 7 6 5 4 4 3 2 2 1 1 1 0 -0 -0
13 15 18 17 16 17 18 20 21 20 21 19 14 12 10 9 10 9 7 7 6 6 7 6 7 6 6 6 6 6 5 3 2 3 3 2 1 1 1 0 -0 -0 -2 -2
12 15 14 19 20 19 19 18 21 20 20 18 13 15 18 8 7 6 6 6 6 6 5 5 5 5 5 5 4 3 2 1 1 0 1 1 1 0 -1 -2 -2 -2 -2 -1
14 14 17 18 17 17 17 18 20 19 19 15 15 16 12 7 6 6 6 5 4 4 4 4 3 3 3 2 1 1 0 1 1 1 1 -0 -1 -1 -1 -2 -1 -1 -1 -1
14 12 14 15 15 18 20 17 18 17 17 15 12 8 7 6 5 4 4 4 3 3 3 3 3 2 2 1 0 1 1 1 1 1 0 -0 -1 -1 -2 -3 -3 -3 -3 -4
15 17 17 15 19 18 16 19 15 16 15 14 8 7 6 5 4 4 4 3 3 2 2 1 2 1 1 -0 -0 0 0 0 0 -0 -0 -1 -1 -1 -3 -3 -4 -5 -5 -6
14 19 16 15 16 13 14 14 13 13 13 9 8 6 5 4 3 3 3 3 2 1 0 -1 -0 0 1 1 0 -0 -0 -1 -1 -1 -1 -1 -2 -2 -4 -4 -4 -5 -7 -8
16 17 13 13 14 15 12 12 13 12 11 9 7 6 4 3 3 3 2 1 1 0 -1 -1 1 1 1 0 -1 -1 -1 -1 -1 -1 -2 -3 -4 -3 -4 -5 -5 -6 -8 -9
15 18 16 19 16 14 12 11 11 10 9 7 7 6 4 3 3 2 1 0 -1 -2 0 1 0 0 -1 -1 -1 -1 -2 -2 -2 -2 -3 -4 -6 -7 -6 -6 -6 -7 -8 -9
17 15 15 14 14 13 11 10 10 10 8 6 5 4 3 2 1 1 -0 -1 -2 -0 0 -1 -1 -1 -1 -2 -2 -2 -2 -3 -3 -4 -4 -5 -7 -8 -9 -10 -9 -9 -9 -9
11 10 11 12 12 12 11 8 7 6 5 5 4 3 2 1 -1 -1 -2 -3 -1 -1 -1 -2 -2 -2 -3 -3 -3 -3 -3 -4 -5 -5 -6 -7 -8 -8 -10 -11 -11 -11 -12 -10
10 10 10 9 9 8 6 6 4 3 3 2 1 1 -0 -1 -2 -3 -3 -1 -1 -2 -2 -3 -3 -3 -3 -4 -4 -4 -5 -5 -6 -6 -7 -8 -8 -9 -11 -12 -12 -13 -13 -14
9 7 5 6 5 4 4 3 3 1 0 0 -0 -1 -1 -2 -4 -5 -4 -3 -2 -3 -4 -3 -4 -4 -4 -4 -5 -6 -6 -7 -7 -8 -8 -9 -10 -10 -12 -13 -14 -14 -14 -15
5 5 4 4 3 3 3 2 1 0 -0 -1 -2 -2 -4 -5 -6 -7 -7 -6 -4 -4 -5 -5 -5 -5 -5 -5 -6 -7 -8 -8 -8 -9 -10 -10 -11 -11 -12 -14 -15 -15 -16 -16
5 4 4 4 3 1 -0 -0 -1 -2 -2 -4 -5 -5 -5 -6 -5 -5 -6 -5 -5 -5 -6 -5 -5 -6 -6 -7 -7 -8 -8 -9 -9 -10 -11 -11 -11 -12 -13 -14 -15 -16 -16 -17
2 2 1 0 -0 -1 -2 -3 -4 -4 -4 -4 -4 -4 -4 -4 -5 -6 -6 -5 -6 -6 -6 -7 -7 -7 -8 -8 -9 -9 -9 -10 -11 -11 -12 -12 -13 -13 -14 -15 -16 -16 -17 -17
1 -0 -1 -2 -2 -3 -4 -4 -4 -4 -4 -3 -4 -5 -6 -6 -6 -6 -7 -8 -7 -7 -7 -8 -8 -9 -9 -9 -10 -10 -11 -11 -12 -12 -13 -13 -14 -15 -16 -16 -15 -17 -17 -18
-2 -2 -2 -3 -3 -3 -3 -4 -3 -4 -5 -5 -6 -7 -7 -6 -7 -8 -8 -7 -8 -8 -8 -9 -10 -10 -10 -11 -11 -12 -12 -13 -13 -14 -14 -15 -16 -17 -16 -17 -17 -18 -18 -19
-3 -3 -4 -4 -4 -4 -4 -4 -4 -5 -7 -7 -6 -6 -6 -7 -8 -8 -8 -8 -8 -9 -10 -11 -11 -11 -12 -12 -13 -14 -14 -14 -15 -15 -17 -17 -17 -17 -17 -17 -18 -18 -18 -19
-4 -5 -5 -4 -5 -5 -5 -6 -6 -6 -6 -7 -7 -7 -8 -8 -8 -9 -10 -10 -10 -11 -12 -12 -12 -13 -13 -14 -15 -15 -16 -16 -16 -17 -18 -18 -18 -18 -18 -18 -18 -18 -19 -19
-5 -5 -5 -6 -6 -7 -7 -7 -7 -7 -7 -8 -8 -8 -8 -9 -10 -10 -10 -11 -12 -13 -13 -14 -14 -15 -15 -16 -16 -17 -17 -18 -18 -19 -19 -19 -20 -20 -20 -19 -19 -19 -19 -19
-7 -7 -7 -7 -7 -8 -8 -8 -8 -9 -10 -9 -9 -10 -10 -10 -11 -11 -12 -12 -13 -14 -15 -15 -16 -16 -17 -17 -17 -17 -18 -19 -20 -19 -20 -21 -21 -21 -20 -20 -20 -20 -20 -20
-7 -8 -8 -8 -9 -9 -9 -9 -9 -10 -11 -11 -11 -11 -11 -12 -12 -13 -14 -14 -15 -16 -16 -17 -17 -17 -18 -18 -18 -19 -19 -21 -21 -22 -21 -21 -21 -21 -20 -20 -20 -20 -20 -20
-9 -9 -9 -10 -10 -10 -10 -11 -11 -11 -12 -12 -13 -13 -13 -14 -14 -15 -15 -16 -17 -17 -17 -18 -18 -19 -19 -19 -20 -21 -21 -22 -22 -20 -21 -21 -21 -21 -21 -21 -20 -20 -20 -20

GFSNGP_850_temp_063.txt.gz
Temp
21 22 22 22 21 21 21 21 20 21 22 23 23 24 24 22 22 21 20 19 20 20 19 17 15 12 11 11 11 10 10 10 9 9 9 8 8 8 8 7 6 5 4 3
20 21 22 21 22 22 22 22 22 22 22 24 24 23 23 21 20 20 18 17 17 18 17 16 13 10 10 10 10 10 10 9 9 8 8 7 7 6 6 6 5 4 3 2
18 20 20 18 20 21 22 22 22 20 22 24 23 23 22 21 20 19 16 15 15 15 14 12 11 9 8 8 9 9 8 8 7 6 6 5 4 5 5 3 3 2 2 1
16 13 15 20 22 22 21 22 23 22 23 23 23 22 22 20 19 16 14 13 12 12 11 10 9 8 7 7 6 5 5 4 4 3 4 3 4 3 3 2 1 1 1 0
15 16 18 20 20 20 21 21 23 23 23 23 22 19 17 16 16 14 12 12 11 10 9 9 8 7 7 6 5 5 4 3 3 3 4 3 3 2 1 1 0 -1 -1 -0
15 15 15 19 21 22 22 19 23 23 23 22 20 17 21 14 13 11 10 10 9 9 9 8 7 7 6 5 5 4 3 3 2 2 1 1 1 0 0 0 0 -0 -1 -1
15 15 18 21 22 22 18 19 23 22 22 21 20 20 17 12 11 10 9 9 8 8 8 7 7 6 6 5 4 3 2 2 1 2 1 0 0 0 -0 -0 -1 -2 -1 -3
14 14 14 19 19 19 20 21 21 21 21 20 18 14 12 11 10 9 8 7 8 7 7 6 6 5 5 3 2 2 1 1 1 0 0 -0 -0 -1 -1 -1 -2 -2 -3 -3
17 17 19 17 19 19 21 21 21 20 20 19 15 13 11 10 9 8 8 8 7 7 6 5 5 5 4 3 2 1 1 0 -1 -1 -1 -1 -1 -2 -1 -2 -3 -4 -4 -5
17 19 19 18 18 18 18 18 19 18 19 17 14 12 11 9 8 8 8 7 6 5 5 4 4 3 2 1 1 0 -0 -1 -1 -1 -2 -2 -2 -3 -3 -4 -4 -4 -6 -6
16 18 19 18 17 17 18 17 16 16 17 16 13 11 10 9 8 8 7 6 5 4 3 2 1 1 0 0 -0 -0 -1 -2 -2 -2 -2 -3 -4 -3 -3 -3 -3 -4 -6 -6
15 18 17 18 18 17 18 17 15 15 15 14 13 11 10 8 8 7 6 5 4 3 1 0 -1 -1 -1 -1 -1 -2 -3 -2 -2 -2 -2 -4 -5 -5 -5 -5 -5 -5 -6 -7
17 17 16 15 15 15 15 16 15 14 14 13 12 10 9 8 7 6 5 4 3 1 -1 -2 -3 -3 -3 -3 -3 -3 -3 -1 -2 -3 -5 -5 -6 -7 -6 -7 -7 -8 -9 -9
16 15 14 14 14 12 12 13 12 12 12 11 10 9 8 6 5 4 3 2 -0 -2 -3 -4 -4 -4 -4 -2 -2 -2 -2 -3 -5 -6 -7 -7 -8 -7 -9 -9 -10 -10 -11 -11
14 13 13 12 11 10 9 9 9 10 10 9 8 7 6 5 3 3 1 -2 -3 -4 -5 -5 -6 -6 -5 -3 -3 -4 -5 -5 -5 -5 -5 -6 -7 -8 -10 -11 -11 -11 -11 -12
14 14 13 10 10 10 8 8 8 8 7 6 6 5 4 2 1 -2 -3 -4 -5 -5 -6 -6 -4 -4 -5 -6 -7 -6 -5 -6 -6 -7 -8 -9 -9 -10 -11 -12 -12 -12 -12 -13
10 10 10 9 9 8 7 7 7 5 4 4 3 2 1 -2 -4 -5 -7 -6 -6 -5 -6 -5 -5 -4 -5 -5 -7 -8 -9 -7 -7 -8 -9 -10 -10 -12 -13 -13 -13 -13 -14 -14
7 7 6 7 8 6 5 4 3 3 2 1 -0 -2 -4 -6 -8 -8 -7 -7 -7 -6 -5 -5 -5 -7 -5 -5 -6 -7 -7 -8 -8 -9 -10 -11 -11 -12 -14 -14 -14 -15 -15 -15
4 4 4 4 3 2 1 0 -0 -1 -2 -2 -3 -5 -6 -6 -6 -7 -7 -8 -8 -7 -6 -7 -7 -6 -6 -7 -8 -8 -9 -9 -10 -11 -11 -12 -14 -15 -15 -15 -16 -16 -16 -16
-0 -0 0 -0 -0 -0 -2 -3 -3 -4 -4 -4 -5 -6 -6 -7 -7 -7 -8 -8 -8 -8 -9 -8 -7 -7 -8 -9 -9 -9 -10 -11 -11 -12 -14 -13 -16 -16 -16 -17 -17 -17 -17 -17
-3 -3 -3 -3 -4 -5 -5 -5 -5 -6 -6 -5 -6 -6 -7 -7 -7 -8 -8 -8 -9 -10 -9 -9 -9 -10 -10 -10 -11 -12 -12 -13 -15 -16 -16 -17 -17 -17 -17 -18 -18 -18 -18 -19
-5 -5 -6 -5 -6 -6 -6 -6 -5 -5 -6 -6 -6 -7 -7 -8 -9 -9 -10 -10 -10 -9 -10 -11 -11 -12 -12 -12 -13 -14 -16 -17 -17 -17 -17 -18 -18 -18 -19 -19 -19 -19 -20 -20
-6 -7 -6 -6 -6 -6 -6 -6 -6 -6 -7 -8 -8 -9 -9 -10 -11 -11 -11 -11 -11 -12 -14 -13 -12 -12 -12 -13 -14 -17 -17 -18 -18 -18 -18 -19 -19 -20 -20 -20 -20 -21 -21 -21
-7 -7 -7 -7 -7 -7 -7 -8 -8 -8 -8 -9 -10 -10 -11 -11 -10 -10 -11 -12 -12 -13 -13 -13 -13 -13 -14 -15 -18 -18 -18 -19 -19 -19 -19 -20 -20 -20 -21 -21 -22 -22 -22 -22
-8 -8 -8 -8 -8 -9 -9 -10 -10 -10 -10 -11 -11 -11 -10 -11 -12 -13 -12 -12 -13 -14 -16 -14 -15 -15 -16 -18 -19 -19 -20 -20 -20 -20 -21 -21 -21 -21 -21 -22 -22 -23 -22 -21
-9 -9 -10 -10 -10 -10 -10 -11 -11 -11 -11 -12 -13 -13 -12 -12 -13 -14 -14 -14 -15 -15 -16 -17 -18 -18 -19 -19 -20 -20 -20 -21 -21 -21 -22 -22 -22 -22 -22 -23 -23 -24 -23 -22
-11 -11 -11 -11 -12 -12 -12 -12 -12 -13 -13 -13 -14 -14 -15 -15 -15 -16 -16 -17 -17 -18 -18 -19 -19 -20 -21 -21 -21 -21 -21 -22 -22 -23 -23 -23 -23 -23 -24 -24 -24 -22 -21 -21